Regional Weather Roundup
Issued by NWS State College, PA

Home | Current Version | Previous Version | Graphics & Text | Print | Product List | Glossary On
Versions: 1 2 3 4 5 6 7 8 9 10 11 12 13 14 15 16 17 18 19 20 21 22 23 24 25 26 27 28 29 30 31 32 33 34 35 36 37 38 39 40 41 42 43 44 45 46 47 48 49 50
000
ASUS41 KCTP 271510
RWRCTP

REGIONAL WEATHER ROUNDUP
NATIONAL WEATHER SERVICE STATE COLLEGE PA
1100 AM EDT THU AUG 27 2015

Note: "fair" indicates few or no clouds below 12,000 feet with no
significant weather and/or obstructions to visibility.

* = STATION THAT DOES NOT REPORT PRECIPITATION /E.G. RAIN...SNOW...ETC/
    THUNDER OR FOG.

PAZ002>004-007>009-013>016-020>023-029>032-271600-
WESTERN PENNSYLVANIA

CITY           SKY/WX    TMP DP  RH WIND       PRES   REMARKS
ERIE           PTSUNNY   67  55  65 N8        30.17R
MEADVILLE      CLOUDY    64  55  72 VRB7      30.19R
FRANKLIN*      CLOUDY    63  55  77 NW8       30.20R
NEW CASTLE     FAIR      68  59  73 CALM      30.19R
BEAVER COUNTY  PTSUNNY   66  57  72 CALM      30.19R
BUTLER*        CLOUDY    66  57  72 NW3       30.20R
PITTSBURGH INT CLOUDY    66  55  67 SW5       30.19R
PITTSBURGH     CLOUDY    67  51  56 CALM      30.18S
INDIANA*       CLOUDY    66  57  72 VRB3      30.22R
LATROBE        PTSUNNY   66  57  72 CALM      30.20R
WASHINGTON CO* NOT AVBL
$$

PAZ004>006-010>012-017>019-024>028-033>037-041-042-045-046-049>053-271600-
CENTRAL PENNSYLVANIA

CITY           SKY/WX    TMP DP  RH WIND       PRES   REMARKS
BRADFORD       CLOUDY    61  53  75 W10       30.18R
DUBOIS         CLOUDY    66  54  65 NW7       30.18R
CLEARFIELD     NOT AVBL
JOHNSTOWN      PTSUNNY   62  50  64 NW5       30.20S
ALTOONA        PTSUNNY   67  52  58 W5        30.18S
STATE COLLEGE  CLOUDY    66  55  68 NW3       30.17R
WILLIAMSPORT   PTSUNNY   68  55  63 W9        30.13R
SELINSGROVE    CLOUDY    70  57  63 CALM      30.15R
FT INDIANTOWN  MOSUNNY   71  55  55 VRB5      30.14R
CAPITAL CITY   SUNNY     72  54  53 N7        30.15R
HARRISBURG     PTSUNNY   72  56  57 NW7       30.14R
YORK           MOSUNNY   71  57  61 VRB7      30.15S
$$

PAZ038>040-043-044-047-048-054-055-060>062-067>071-271600-
EASTERN PENNSYLVANIA

CITY           SKY/WX    TMP DP  RH WIND       PRES   REMARKS
SCRANTON       CLOUDY    67  52  58 NW15      30.14R
MOUNT POCONO   PTSUNNY   63  51  65 NW12      30.15R
ALLENTOWN      MOSUNNY   72  55  55 NW9       30.12R
QUAKERTOWN*    SUNNY     72  55  56 N12       30.13R
READING        MOSUNNY   72  56  57 VRB7      30.12R
LANCASTER      MOSUNNY   72  56  57 N6        30.13S
COATESVILLE    SUNNY     72  57  60 N7        30.14S
POTTSTOWN      MOSUNNY   71  57  61 NW10      30.13R
BLUE BELL      SUNNY     73  59  60 NW7       30.10S
DOYLESTOWN     MOSUNNY   73  56  54 VRB7      30.11R
WILLOW GROVE   NOT AVBL
NORTH PHILA    MOSUNNY   77  54  44 N10       30.12R
PHILADELPHIA   PTSUNNY   76  54  46 N9        30.11R
$$


USA.gov is the U.S. government's official web portal to all federal, state and local government web resources and services.